This is the latest recevied weather packets stored in our database for station/object W2EH. If no packets are shown the sender has not sent any weather packets the latest 10 day(s).
| Time | Temp. | Humidity | Pressure | Rain* | Wind** | Luminosity | Snow |
|---|---|---|---|---|---|---|---|
| 1777596058 | 17.78° C | 97% | 1010.2 hPa | 0 mm | - | 2 W/m² | - |
| 1777595757 | 18.33° C | 97% | 1010.5 hPa | 0 mm | - | 3 W/m² | - |
| 1777595453 | 18.33° C | 97% | 1010.2 hPa | 0 mm | - | 3 W/m² | - |
| 1777595149 | 18.33° C | 97% | 1010.3 hPa | 0 mm | - | 5 W/m² | - |
| 1777594845 | 18.33° C | 97% | 1009.9 hPa | 0 mm | - | 8 W/m² | - |
| 1777594542 | 18.33° C | 97% | 1009.7 hPa | 0 mm | - | 14 W/m² | - |
| 1777594238 | 18.33° C | 97% | 1009.7 hPa | 0 mm | - | 20 W/m² | - |
| 1777593934 | 18.33° C | 97% | 1010.1 hPa | 0 mm | - | 30 W/m² | - |
| 1777593631 | 18.33° C | 97% | 1010.1 hPa | 0 mm | - | 31 W/m² | - |
| 1777593327 | 18.33° C | 97% | 1009.9 hPa | 0 mm | - | 39 W/m² | - |
| 1777593022 | 18.33° C | 97% | 1009.8 hPa | 0 mm | - | 38 W/m² | - |
| 1777592721 | 18.33° C | 97% | 1009.5 hPa | 0 mm | - | 66 W/m² | - |
| 1777592417 | 18.33° C | 97% | 1009.6 hPa | 0 mm | - | 57 W/m² | - |
| 1777592112 | 18.33° C | 97% | 1009.4 hPa | 0.51 mm | - | 41 W/m² | - |
| 1777591810 | 18.33° C | 97% | 1009.7 hPa | 1.27 mm | - | 29 W/m² | - |
| 1777591505 | 18.33° C | 97% | 1008.5 hPa | 3.56 mm | - | 24 W/m² | - |
| 1777591202 | 18.33° C | 97% | 1009.4 hPa | 6.6 mm | - | 22 W/m² | - |
| 1777590901 | 18.33° C | 97% | 1010.3 hPa | 6.1 mm | - | 24 W/m² | - |
| 1777590598 | 18.33° C | 97% | 1011.4 hPa | 4.32 mm | - | 12 W/m² | - |
| 1777590294 | 18.33° C | 97% | 1011.7 hPa | 1.78 mm | - | 7 W/m² | - |
| 1777589992 | 18.33° C | 97% | 1011.2 hPa | 0.51 mm | - | 8 W/m² | - |
| 1777589688 | 18.33° C | 97% | 1010.7 hPa | 0.51 mm | - | 13 W/m² | - |
| 1777589386 | 18.33° C | 97% | 1010.6 hPa | 0 mm | - | 12 W/m² | - |
| 1777589083 | 18.33° C | 96% | 1010.4 hPa | 0 mm | - | 17 W/m² | - |
| 1777588779 | 18.33° C | 96% | 1010.6 hPa | 0.51 mm | - | 14 W/m² | - |
* Rain latest hour (hover to see other rain measurements)
** Current wind speed in m/s (hover to see current wind gust speed)